Location: Brantley
(31.5822°N, 86.2569°W)
Time: 08:00:58
(UTC+00:00)

Transit 2A Rocket - Pass Details

Date: 17 February 2026
Orbit: 583 x 900 km, 66.7° (Epoch: 8 March)

Event Time Altitude Azimuth Distance (km) Brightness Sun altitude
Rises 22:42:35 0° 247° (WSW) 3,468 10.8 9.6°
Reaches altitude 10° 22:45:53 10° 266° (W) 2,558 9.7 8.9°
Maximum altitude 22:49:54 18° 308° (NW) 2,044 7.8 8.1°
Drops below altitude 10° 22:53:56 10° 350° (N) 2,572 7.7 7.3°
Sets 22:57:17 0° 9° (N) 3,495 8.1 6.6°
